Location: Antichan
(42.9728°N, 0.6667°E)
Time: 18:19:25
(UTC+00:00)

ARGOS - Pass Details

Date: 15 August 2020
Orbit: 820 x 835 km, 98.5° (Epoch: 17 September)

Event Time Altitude Azimuth Distance (km) Brightness Sun altitude
Rises 19:44:42 0° 178° (S) 3,354 6.0 -8.5°
Reaches altitude 10° 19:47:06 10° 182° (S) 2,423 5.3 -8.9°
Maximum altitude 19:52:21 54° 260° (W) 995 3.9 -9.7°
Drops below altitude 10° 19:57:37 10° 338° (NNW) 2,430 6.4 -10.5°
Sets 20:00:02 0° 343° (NNW) 3,366 7.1 -10.9°
